sat.trackr.live / text

‹ back to catalog

STARLINK-31726

NORAD 59739 · 2024-090K

PAYLOAD ACTIVE UNKNOWN

§ Identity

Operator
Country
US
Launch date
2024-05-13
Launch site
AFETR
Launch vehicle
Mass (kg)
RCS (m²)

Purposes: comms

External: N2YO · Heavens-Above · Gunter

§ Orbital elements

Epoch: 2026-05-25T04:35:36.916800Z

Period
94.27 min
Inclination
42.9999°
Eccentricity
0.0001210
Mean motion
15.27586353 rev/d
Perigee alt
482.2 km
Apogee alt
483.9 km
Semi-major
6,861.2 km
B*
9.0530e-5
RAAN
111.1475°
Arg perigee
268.8987°
Mean anomaly
91.1726°
Rev number
11,514

§ Raw data

STARLINK-317261 59739U 24090K   26145.19139950  .00002230  00000+0  90530-4 0  99902 59739  42.9999 111.1475 0001210 268.8987  91.1726 15.27586353115142

JSON: /api/v1/satellites/59739 · /tle

For live sub-satellite position, see the globe view (requires WebGL).

§ Visibility from observer

Set your observer location to see the next 7 days of passes ≥ 10°. The values pass through the URL so the page stays shareable.

No JS? Fill the form by hand. The geolocation button needs JavaScript.